Ganntown, Illinois
Current Conditions -  °F | °C
As of 12:35 AM on Saturday 25 Oct 2014 (Local Time) from KM30 Reporting Station
Haze Haze  
Wind Chill: 49°   Ceiling: Unl
Heat Index: 49°   Visibility: 2.5mi
Dew Point: 49°   Wind: 0mph
Humidity: 100%   Direction: NA
Pressure: 30.05"   Gusts: NA
Location:  37.3798°N, 88.7652°W
Report Text: KM30 250535Z AUTO 00000KT 2 1/2SM BR CLR 10/10 A3005 RMK AO2 T00960096
Loading
Personal Weather Stations






























Interactive Weather Map
Tropical Storm Tracking
New forecast layout! Learn more

10-Day Weather Forecast

Advertisements
Track Severe Weather on mobile